Houston Clover, TX

10:04 AM CDT on September 23, 2017 (GMT -0500)
Clover

Weather History for KLVJ - November, 2013

Change the Weather History Date:

Monday, November 18, 2013

  Actual Average (KEFD) Record (KEFD)
Temperature  
Mean Temperature 72 °F -  
Max Temperature 78 °F 70 °F 82 °F (2016)
Min Temperature 66 °F 52 °F 35 °F (2014)
Cooling Degree Days 7    
Growing Degree Days 22 (Base 50)    
Moisture  
Dew Point 62 °F    
Average Humidity 72    
Maximum Humidity 94    
Minimum Humidity 39    
Precipitation  
Precipitation 0.00 in - - ()
Sea Level Pressure  
Sea Level Pressure 30.04 in    
Wind  
Wind Speed 4 mph (NE)    
Max Wind Speed 13 mph    
Max Gust Speed 21 mph    
Visibility 5 miles    
Events Fog    
Averages and records for this station are not official NWS values.
T = Trace of Precipitation, MM = Missing Value Source: NWS Daily Summary

Daily Weather History Graph

Daily Weather History Graph

Search for Another Location

Airport or City:

Trip Planner

Search our weather history database for the weather conditions in past years. The results will help you decide how hot, cold, wet, or windy it might be!

Date:

Astronomy

Nov. 18, 2013 Rise Set
Actual Time 6:47 AM CST 5:24 PM CST
Civil Twilight 6:22 AM CST 5:49 PM CST
Nautical Twilight 5:53 AM CST 6:18 PM CST
Astronomical Twilight 5:25 AM CST 6:46 PM CST
Moon 6:28 PM CST (11/18) 7:36 AM CST (11/18)
Length of Visible Light 11h 27m
Length of Day
10h 36m
Full, 99% of the Moon is Illuminated
Nov 18
Full
Nov 25
Last Quarter
Dec 2
New
Dec 9
First Quarter
Dec 17
Full

Hourly Weather History & Observations

Time (CST) Temp. Dew Point Humidity Pressure Visibility Wind Dir Wind Speed Gust Speed Precip Events Conditions
12:53 AM 73.0 °F 71.1 °F 93% 29.96 in 0.2 mi Calm Calm - N/A Fog Fog
1:53 AM 73.9 °F 71.1 °F 91% 29.96 in 0.2 mi Calm Calm - N/A Fog Fog
2:53 AM 73.9 °F 71.1 °F 91% 29.97 in 0.2 mi Calm Calm - N/A Fog Fog
3:53 AM 73.9 °F 71.1 °F 91% 29.98 in 0.2 mi Calm Calm - N/A Fog Fog
4:53 AM 73.0 °F 71.1 °F 93% 29.98 in 0.2 mi Calm Calm - N/A Fog Fog
5:53 AM 73.0 °F 71.1 °F 93% 29.99 in 0.2 mi Calm Calm - N/A Fog Fog
6:53 AM 73.0 °F 71.1 °F 93% 30.01 in 0.8 mi North 3.5 mph - N/A   Mist
7:53 AM 73.9 °F 72.0 °F 93% 30.02 in 0.2 mi NNE 4.6 mph - N/A Fog Fog
8:18 AM 73.4 °F 71.6 °F 94% 30.03 in 1.5 mi NNE 4.6 mph - N/A   Overcast
8:25 AM 73.4 °F 71.6 °F 94% 30.04 in 1.8 mi NNE 4.6 mph - N/A   Overcast
8:41 AM 73.4 °F 71.6 °F 94% 30.04 in 2.0 mi NNE 6.9 mph - N/A   Overcast
8:53 AM 75.0 °F 71.1 °F 87% 30.05 in 2.5 mi NNE 8.1 mph - N/A   Overcast
9:18 AM 75.2 °F 71.6 °F 89% 30.06 in 3.0 mi North 9.2 mph - N/A   Haze
9:53 AM 75.0 °F 71.1 °F 87% 30.06 in 3.0 mi NNE 9.2 mph - N/A   Overcast
10:33 AM 78.8 °F 71.6 °F 78% 30.06 in 5.0 mi NNE 11.5 mph - N/A   Haze
10:53 AM 77.0 °F 70.0 °F 79% 30.06 in 4.0 mi NNE 11.5 mph - N/A   Haze
11:53 AM 77.0 °F 70.0 °F 79% 30.04 in 5.0 mi NE 6.9 mph - N/A   Haze
12:53 PM 73.9 °F 64.9 °F 73% 30.04 in 8.0 mi East 11.5 mph 16.1 mph N/A   Overcast
1:23 PM 75.2 °F 64.4 °F 69% 30.03 in 9.0 mi ENE 11.5 mph - N/A   Overcast
1:53 PM 75.9 °F 57.9 °F 54% 30.03 in 10.0 mi East 11.5 mph 20.7 mph N/A   Mostly Cloudy
2:53 PM 77.0 °F 50.0 °F 39% 30.03 in 10.0 mi ENE 6.9 mph - N/A   Overcast
3:53 PM 75.0 °F 48.9 °F 40% 30.04 in 10.0 mi East 6.9 mph - N/A   Overcast
4:53 PM 73.9 °F 48.9 °F 41% 30.05 in 10.0 mi East 8.1 mph - N/A   Overcast
5:53 PM 72.0 °F 52.0 °F 49% 30.06 in 10.0 mi NE 8.1 mph - N/A   Overcast
6:53 PM 72.0 °F 46.0 °F 40% 30.08 in 10.0 mi ENE 9.2 mph - N/A   Overcast
7:53 PM 69.1 °F 46.9 °F 45% 30.09 in 10.0 mi ENE 4.6 mph - N/A   Overcast
8:53 PM 68.0 °F 48.0 °F 49% 30.10 in 10.0 mi NNE 5.8 mph - N/A   Overcast
9:53 PM 66.0 °F 48.0 °F 52% 30.11 in 10.0 mi NE 6.9 mph - N/A   Scattered Clouds
10:53 PM 68.0 °F 43.0 °F 40% 30.11 in 10.0 mi NE 12.7 mph - N/A   Overcast
11:53 PM 66.9 °F 43.0 °F 42% 30.11 in 10.0 mi NE 9.2 mph - N/A   Overcast